Location: ??????????
(48.4699°N, 37.9573°E)
Time: 12:10:35
(UTC+00:00)

Cosmos 1455 - Pass Details

Date: 20 January 2021
Orbit: 499 x 520 km, 82.5° (Epoch: 26 February)

Event Time Altitude Azimuth Distance (km) Brightness Sun altitude
Rises 15:45:06 0° 353° (N) 2,628 5.7 -15.8°
Reaches altitude 10° 15:47:16 10° 358° (N) 1,741 4.8 -16.1°
Maximum altitude 15:51:02 57° 78° (ENE) 608 2.1 -16.7°
Drops below altitude 10° 15:54:48 10° 158° (SSE) 1,738 4.7 -17.3°
Sets 15:56:57 0° 162° (SSE) 2,623 5.7 -17.7°
